Yakima, WA
on Tuesday, November 20, 2012

Tuesday
Previous Day Next Day
Daily Summary
 ActualAverageRecord
Temperature
Mean Temperature °F 36°F  
Max Temperature 58°F 46°F 63°F (2002)
Min Temperature 40°F 26°F 1°F (1985)
Degree Days
Heating Degree Days 16 29  
Month to date heating degree days 423 515  
Since 1 July heating degree days 960 1219  
Cooling Degree Days 0 0  
Month to date cooling degree days 0 0  
Year to date cooling degree days 667 472  
Moisture
Dew Point 39°F   
Average Humidity 68    
Maximum Humidity 80    
Minimum Humidity 55    
Precipitation
Precipitation 0.01 in 0.04 in 0.41 in (1966)
Month to date precipitation 0.56 0.65  
Year to date precipitation 7.09 6.32  
Snow
Snow 0.00 in 0.20 in 5.20 in (1946)
Month to date snowfall 0.8 1.5  
Year to date snowfall 22.3 10.2  
Since 1 July snowfall 0.8 1.6  
Snow Depth 0.00 in   
Wind
Wind Speed 7 mph   
Max Wind Speed 26 mph   
Max Gust Speed 36 mph   
Visibility 10 miles   
Events Rain   

Key: T is trace of precipitation, MM is missing value
Source: NWS Daily Summary
Time(PST)TemperatureDew PointHumidity Pressure Visibility Wind DirectionWind SpeedGust SpeedPrecipitationEvents Conditions
12:53 AM 48.9°F 39.0°F 69% 29.73 in 10.0 miles Calm Calm - N/A   Clear
1:53 AM 51.1°F 37.9°F 61% 29.73 in 10.0 miles SSE 5.8 mph - N/A   Mostly Cloudy
2:53 AM 48.9°F 39.0°F 69% 29.75 in 10.0 miles West 3.5 mph - N/A   Partly Cloudy
3:53 AM 50.0°F 41.0°F 71% 29.73 in 10.0 miles East 5.8 mph - 0.00 in Rain Light Rain
4:53 AM 48.0°F 41.0°F 77% 29.73 in 10.0 miles South 6.9 mph - 0.00 in   Overcast
5:53 AM 48.9°F 41.0°F 74% 29.73 in 10.0 miles Calm Calm - 0.00 in Rain Light Rain
6:53 AM 48.0°F 41.0°F 77% 29.71 in 10.0 miles SE 3.5 mph - 0.00 in Rain Light Rain
7:20 AM 48.2°F 41.0°F 76% 29.68 in 10.0 miles SE 4.6 mph - 0.01 in Rain Light Rain
7:28 AM 48.2°F 41.0°F 76% 29.70 in 10.0 miles Calm Calm - N/A Rain Light Rain
7:53 AM 46.9°F 43.0°F 86% 29.70 in 10.0 miles Calm Calm - 0.01 in   Overcast
8:53 AM 48.9°F 41.0°F 74% 29.69 in 10.0 miles Calm Calm - N/A   Scattered Clouds
9:53 AM 48.9°F 43.0°F 80% 29.68 in 10.0 miles SE 3.5 mph - N/A   Mostly Cloudy
10:53 AM 51.1°F 43.0°F 74% 29.65 in 10.0 miles ENE 3.5 mph - N/A   Mostly Cloudy
11:53 AM - - N/A% 29.62 in 10.0 miles SSE 9.2 mph - 0.00 in   Overcast
12:53 PM 55.9°F - N/A% 29.63 in - South 9.2 mph - N/A   Scattered Clouds
1:53 PM 55.9°F - N/A% 29.62 in - SSW 20.7 mph 29.9 mph N/A   Clear
2:53 PM 55.0°F 39.9°F 57% 29.63 in 10.0 miles South 18.4 mph 31.1 mph N/A   Mostly Cloudy
3:53 PM 52.0°F 39.0°F 61% 29.67 in 10.0 miles South 21.9 mph 32.2 mph N/A   Clear
4:53 PM 50.0°F 37.9°F 63% 29.69 in 10.0 miles South 12.7 mph 18.4 mph N/A   Scattered Clouds
5:53 PM 48.9°F 37.9°F 66% 29.71 in 10.0 miles SSW 10.4 mph - N/A   Mostly Cloudy
6:53 PM 48.0°F 37.0°F 66% 29.70 in 10.0 miles SSW 5.8 mph 16.1 mph N/A   Partly Cloudy
7:53 PM 46.0°F 36.0°F 68% 29.70 in 10.0 miles South 11.5 mph - N/A   Clear
8:53 PM 48.0°F 35.1°F 61% 29.70 in 10.0 miles South 13.8 mph - N/A   Overcast
9:53 PM 46.0°F 34.0°F 63% 29.70 in 10.0 miles Calm Calm - N/A   Clear
10:53 PM 43.0°F 36.0°F 76% 29.72 in 10.0 miles NNW 3.5 mph - 0.00 in Rain Light Rain
11:53 PM 41.0°F 35.1°F 79% 29.68 in 10.0 miles South 6.9 mph - 0.00 in   Scattered Clouds
Moon Phase
Nov. 20 Nov. 28 Dec. 06 Dec. 13 Dec. 20
Sunrise:07:12 AM (PST) Moon Rise:12:35 PM (PST)11/20
Sunset:04:23 PM (PST) Moon Set:No Moon Set/

Copyright © 2014 The Weather Underground, Inc.